Location: Sabalos
(43.2860°N, 0.1414°E)
Time: 20:41:45
(UTC+00:00)

Nadezhda 1 Rocket - Pass Details

Date: 05 July 2020
Orbit: 941 x 1005 km, 83.0° (Epoch: 14 August)

Event Time Altitude Azimuth Distance (km) Brightness Sun altitude
Rises 20:24:57 0° 354° (N) 3,741 7.8 -7.0°
Reaches altitude 10° 20:27:31 10° 358° (N) 2,789 7.1 -7.4°
Maximum altitude 20:33:55 65° 80° (E) 1,096 4.2 -8.3°
Drops below altitude 10° 20:40:13 10° 162° (SSE) 2,760 5.8 -9.1°
Enters shadow 20:41:03 - 163° (SSE) 3,065 6.1 -9.2°
